Location: ???????
(56.2167°N, 38.0500°E)
Time: 05:11:55
(UTC+00:00)

Cosmos 1151 Rocket - Pass Details

Date: 19 May 2025
Orbit: 586 x 607 km, 82.5° (Epoch: 19 June)

Event Time Altitude Azimuth Distance (km) Brightness Sun altitude
Exits shadow 20:42:52 20° 152° (SSE) 1,373 4.3 -13.3°
Maximum altitude 20:45:20 40° 93° (E) 870 3.7 -13.4°
Drops below altitude 10° 20:49:18 10° 24° (NNE) 1,925 6.5 -13.5°
Sets 20:51:36 0° 17° (NNE) 2,831 7.7 -13.5°
